Location: �bnet
(46.9957°N, 8.4908°E)
Time: 01:19:44
(UTC+00:00)

Cosmos 1300 Rocket - Pass Details

Date: 11 May 2021
Orbit: 601 x 627 km, 82.5° (Epoch: 23 June)

Event Time Altitude Azimuth Distance (km) Brightness Sun altitude
Rises 23:14:58 0° 356° (N) 2,914 8.4 -24.8°
Reaches altitude 10° 23:17:19 10° 3° (N) 1,998 7.2 -24.9°
Maximum altitude 23:21:33 43° 75° (ENE) 869 4.3 -24.9°
Enters shadow 23:21:41 43° 81° (E) 870 4.3 -24.9°
